Home   Weather   Jastrzębie Zdrój   Past weeks

Flag for Poland Past Weather in Jastrzębie Zdrój, Poland — Yesterday and Last 2 Weeks

50 °F


Feels Like: 48 °F
Forecast: 39 / 49 °F
Wind: 5 mph from North

Location: Ostrava / Mosnov

Current Time: Oct 26, 2016 at 12:46:07 AM

Latest Report: Oct 26, 2016 at 12:00 AM

Visibility: 5 mi

Pressure: 30.27 "Hg

Humidity: 89%

Dew Point: 47 °F

Location of Jastrzębie ZdrójLocation

Past Weather in Jastrzębie Zdrój — Graph


Jastrzębie Zdrój Temperature Yesterday

Maximum temperature yesterday: 61 °F (at 3:00 PM)
Minimum temperature yesterday: 51 °F (at 11:00 PM)
Average temperature yesterday: 56 °F

High & Low Weather Summary for the Past Weeks

High65 °F (Oct 15, 2:00 PM)99% (Oct 21, 9:00 AM)30.39 "Hg (Oct 21, 9:00 AM)
Low36 °F (Oct 14, 6:00 AM)50% (Oct 23, 1:00 PM)29.93 "Hg (Oct 12, 5:00 AM)
Average47 °F87%30.10 "Hg
* Reported Oct 10 11:00 PM — Oct 25 11:00 PM, Jastrzębie Zdrój, Weather by CustomWeather, © 2016

Note: Actual official high and low records may vary slightly from our data, if they occured in-between our weather recording intervals... More about our weather records


Jastrzębie Zdrój Weather History for the Previous 24 Hours

Scroll right to see more
Time TempWeatherWind HumidityBarometerVisibility
11:00 PM
Tue, Oct 25
51 °FLow clouds.7 mph92%30.26 "Hg6 mi
10:00 PM51 °FLow clouds.3 mph90%30.25 "Hg6 mi
9:00 PM52 °FLow clouds.5 mph90%30.23 "Hg7 mi
8:00 PM53 °FOvercast.5 mph91%30.21 "Hg7 mi
7:00 PM53 °FLight rain. Low clouds.6 mph91%30.20 "Hg7 mi
6:00 PM58 °FOvercast.5 mph89%30.14 "Hg7 mi
5:00 PM60 °FOvercast.6 mph85%30.13 "Hg7 mi
4:00 PM61 °FOvercast.5 mph79%30.11 "Hg7 mi
3:00 PM61 °FOvercast.8 mph82%30.10 "Hg7 mi
2:00 PM60 °FFog.6 mph85%30.12 "Hg5 mi
1:00 PM59 °FFog.5 mph85%30.11 "Hg5 mi
12:00 PM58 °FOvercast.7 mph85%30.13 "Hg7 mi
11:00 AM58 °FOvercast.6 mph87%30.12 "Hg7 mi
10:00 AM58 °FOvercast.7 mph87%30.12 "Hg7 mi
9:00 AM56 °FOvercast.6 mph89%30.09 "Hg7 mi
8:00 AM54 °FPartly sunny.N/A92%30.06 "Hg9 mi
7:00 AM54 °FPassing clouds.3 mph91%30.03 "Hg9 mi
6:00 AM53 °FPassing clouds.3 mph91%30.03 "Hg9 mi
5:00 AM54 °FPassing clouds.3 mph91%30.02 "Hg9 mi
4:00 AM56 °FOvercast.8 mph86%30.03 "Hg9 mi
3:00 AM56 °FOvercast.6 mph87%30.03 "Hg9 mi
2:00 AM53 °FOvercast.6 mph90%30.04 "Hg9 mi
1:00 AM53 °FOvercast.5 mph90%30.05 "Hg7 mi
12:00 AM51 °FPassing clouds.5 mph91%30.06 "Hg7 mi
Weather by CustomWeather, © 2016

See weather overviewHow to use our weather pages